Luverne, MN

4:07 PM CDT on October 21, 2019 (GMT -0500)
Luverne

Weather History for KLYV - September, 2019

Change the Weather History Date:

Saturday, September 21, 2019

  Actual Average (KPQN) Record (KPQN)
Temperature  
Mean Temperature 70 °F -  
Max Temperature 80 °F 66 °F 89 °F (2005)
Min Temperature 57 °F 45 °F 33 °F (1999)
Cooling Degree Days 4    
Growing Degree Days 20 (Base 50)    
Moisture  
Dew Point 62 °F    
Average Humidity 73    
Maximum Humidity 100    
Minimum Humidity 45    
Precipitation  
Precipitation 0.52 in - - ()
Sea Level Pressure  
Sea Level Pressure 29.81 in    
Wind  
Wind Speed 10 mph (SW)    
Max Wind Speed 18 mph    
Max Gust Speed 23 mph    
Visibility 10 miles    
Events Rain , Thunderstorm    
Averages and records for this station are not official NWS values.
T = Trace of Precipitation, MM = Missing Value Source: NWS Daily Summary

Daily Weather History Graph

Daily Weather History Graph

Search for Another Location

Airport or City:

Astronomy

Sep. 21, 2019 Rise Set
Actual Time 7:10 AM CDT 7:24 PM CDT
Civil Twilight 6:42 AM CDT 7:53 PM CDT
Nautical Twilight 6:08 AM CDT 8:26 PM CDT
Astronomical Twilight 5:33 AM CDT 9:00 PM CDT
Moon 11:50 PM CDT 2:30 PM CDT
Length of Visible Light 13h 10m
Length of Day
12h 13m
Waning Gibbous, 54% of the Moon is Illuminated
Sep 21
Waning Gibbous
Sep 21
Last Quarter
Sep 28
New
Oct 5
First Quarter
Oct 13
Full

Hourly Weather History & Observations

Time (CDT) Temp. Heat Index Dew Point Humidity Pressure Visibility Wind Dir Wind Speed Gust Speed Precip Events Conditions
12:16 AM 69.8 °F - 62.6 °F 78% 29.87 in 10.0 mi South 6.9 mph - N/A   Overcast
12:35 AM 69.8 °F - 62.6 °F 78% 29.86 in 10.0 mi SSE 6.9 mph - N/A   Overcast
12:59 AM 69.8 °F - 62.6 °F 78% 29.85 in 10.0 mi South 10.4 mph 17.3 mph N/A   Overcast
1:16 AM 69.8 °F - 62.6 °F 78% 29.85 in 10.0 mi South 10.4 mph 20.7 mph N/A   Overcast
1:36 AM 69.8 °F - 62.6 °F 78% 29.85 in 10.0 mi South 10.4 mph 17.3 mph N/A   Overcast
1:55 AM 69.8 °F - 62.6 °F 78% 29.85 in 10.0 mi South 10.4 mph - N/A   Overcast
2:18 AM 69.8 °F - 64.4 °F 83% 29.84 in 10.0 mi SSE 8.1 mph - N/A   Overcast
2:36 AM 69.8 °F - 64.4 °F 83% 29.84 in 10.0 mi South 8.1 mph 16.1 mph N/A   Overcast
3:16 AM 68.0 °F - 64.4 °F 88% 29.82 in 10.0 mi South 9.2 mph - N/A   Overcast
3:39 AM 68.0 °F - 64.4 °F 88% 29.81 in 10.0 mi South 9.2 mph - N/A Rain Rain
3:57 AM 68.0 °F - 64.4 °F 88% 29.80 in 10.0 mi SSE 10.4 mph - N/A   Overcast
4:16 AM 68.0 °F - 64.4 °F 88% 29.79 in 10.0 mi SSE 10.4 mph - N/A   Overcast
4:59 AM 69.8 °F - 64.4 °F 83% 29.78 in 10.0 mi South 12.7 mph 18.4 mph N/A   Overcast
5:17 AM 68.0 °F - 64.4 °F 88% 29.77 in 7.0 mi South 12.7 mph 18.4 mph N/A   Overcast
5:35 AM 68.0 °F - 64.4 °F 88% 29.75 in 10.0 mi South 15.0 mph 21.9 mph N/A   Overcast
5:56 AM 69.8 °F - 64.4 °F 83% 29.76 in 10.0 mi South 12.7 mph 23.0 mph N/A   Overcast
6:15 AM 69.8 °F - 64.4 °F 83% 29.77 in 10.0 mi South 12.7 mph 21.9 mph N/A   Overcast
6:19 AM 69.8 °F - 64.4 °F 83% 29.76 in 10.0 mi South 13.8 mph 23.0 mph N/A   Overcast
6:38 AM 69.8 °F - 64.4 °F 83% 29.76 in 10.0 mi South 15.0 mph 20.7 mph N/A   Overcast
6:55 AM 69.8 °F - 66.2 °F 88% 29.75 in 3.0 mi South 9.2 mph 18.4 mph 0.20 in Rain , Thunderstorm Heavy Thunderstorms and Rain
7:16 AM 68.0 °F - 66.2 °F 94% 29.76 in 4.0 mi South 11.5 mph 19.6 mph 0.29 in Rain , Thunderstorm Heavy Thunderstorms and Rain
7:36 AM 68.0 °F - 66.2 °F 94% 29.76 in 7.0 mi South 11.5 mph 16.1 mph 0.32 in Rain , Thunderstorm Light Thunderstorms and Rain
7:59 AM 68.0 °F - 66.2 °F 94% 29.76 in 7.0 mi South 13.8 mph 20.7 mph N/A   Overcast
8:16 AM 68.0 °F - 68.0 °F 100% 29.76 in 7.0 mi South 11.5 mph - N/A Thunderstorm Mostly Cloudy
8:36 AM 69.8 °F - 68.0 °F 94% 29.76 in 7.0 mi South 10.4 mph 16.1 mph N/A   Mostly Cloudy
8:56 AM 69.8 °F - 68.0 °F 94% 29.76 in 7.0 mi South 10.4 mph 18.4 mph N/A   Overcast
9:15 AM 69.8 °F - 68.0 °F 94% 29.77 in 10.0 mi South 10.4 mph 17.3 mph N/A   Overcast
9:19 AM 69.8 °F - 68.0 °F 94% 29.77 in 10.0 mi South 13.8 mph 18.4 mph N/A   Overcast
9:37 AM 69.8 °F - 68.0 °F 94% 29.77 in 10.0 mi South 11.5 mph 19.6 mph N/A   Overcast
9:56 AM 69.8 °F - 68.0 °F 94% 29.77 in 10.0 mi South 15.0 mph 20.7 mph N/A   Overcast
10:16 AM 71.6 °F - 68.0 °F 88% 29.75 in 10.0 mi South 15.0 mph 20.7 mph N/A   Overcast
10:36 AM 73.4 °F - 68.0 °F 83% 29.76 in 10.0 mi South 12.7 mph 19.6 mph N/A   Scattered Clouds
10:59 AM 73.4 °F - 68.0 °F 83% 29.76 in 10.0 mi SSW 12.7 mph 17.3 mph N/A   Overcast
11:17 AM 75.2 °F - 68.0 °F 78% 29.76 in 10.0 mi SSW 16.1 mph 21.9 mph N/A   Overcast
11:36 AM 75.2 °F - 68.0 °F 78% 29.76 in 10.0 mi SSW 13.8 mph 18.4 mph N/A   Overcast
11:56 AM 77.0 °F - 68.0 °F 74% 29.76 in 10.0 mi SW 12.7 mph - N/A   Scattered Clouds
12:15 PM 77.0 °F - 68.0 °F 74% 29.76 in 10.0 mi SW 10.4 mph - N/A   Scattered Clouds
12:20 PM 78.8 °F - 68.0 °F 69% 29.76 in 10.0 mi SW 13.8 mph - N/A   Mostly Cloudy
12:38 PM 77.0 °F - 68.0 °F 74% 29.77 in 10.0 mi WSW 18.4 mph 23.0 mph N/A   Mostly Cloudy
12:55 PM 78.8 °F - 66.2 °F 65% 29.77 in 10.0 mi West 11.5 mph 18.4 mph N/A   Mostly Cloudy
1:15 PM 78.8 °F - 66.2 °F 65% 29.76 in 10.0 mi WSW 12.7 mph 18.4 mph N/A   Scattered Clouds
1:36 PM 78.8 °F - 62.6 °F 57% 29.77 in 10.0 mi West 13.8 mph 17.3 mph N/A   Clear
1:58 PM 80.6 °F 81.8 °F 62.6 °F 54% 29.76 in 10.0 mi WSW 11.5 mph 16.1 mph N/A   Clear
2:17 PM 80.6 °F 81.1 °F 59.0 °F 48% 29.77 in 10.0 mi West 12.7 mph - N/A   Clear
2:36 PM 80.6 °F 81.1 °F 59.0 °F 48% 29.77 in 10.0 mi WSW 11.5 mph - N/A   Clear
2:56 PM 80.6 °F 80.8 °F 57.2 °F 45% 29.77 in 10.0 mi West 13.8 mph 18.4 mph N/A   Clear
3:15 PM 80.6 °F 81.1 °F 59.0 °F 48% 29.78 in 10.0 mi WSW 15.0 mph 18.4 mph N/A   Clear
3:20 PM 80.6 °F 81.1 °F 59.0 °F 48% 29.78 in 10.0 mi West 12.7 mph 18.4 mph N/A   Clear
3:38 PM 80.6 °F 81.1 °F 59.0 °F 48% 29.78 in 10.0 mi West 12.7 mph 18.4 mph N/A   Clear
3:55 PM 80.6 °F 81.1 °F 59.0 °F 48% 29.78 in 10.0 mi West 12.7 mph 17.3 mph N/A   Clear
4:16 PM 80.6 °F 81.1 °F 59.0 °F 48% 29.78 in 10.0 mi West 13.8 mph 18.4 mph N/A   Clear
4:35 PM 80.6 °F 81.1 °F 59.0 °F 48% 29.78 in 10.0 mi West 11.5 mph 16.1 mph N/A   Clear
4:58 PM 78.8 °F - 57.2 °F 47% 29.78 in 10.0 mi West 12.7 mph - N/A   Clear
5:16 PM 78.8 °F - 57.2 °F 47% 29.79 in 10.0 mi West 11.5 mph - N/A   Clear
5:36 PM 78.8 °F - 59.0 °F 51% 29.80 in 10.0 mi WNW 11.5 mph - N/A   Clear
5:56 PM 77.0 °F - 59.0 °F 54% 29.80 in 10.0 mi West 11.5 mph - N/A   Clear
6:15 PM 77.0 °F - 57.2 °F 50% 29.81 in 10.0 mi West 10.4 mph 17.3 mph N/A   Clear
6:37 PM 75.2 °F - 59.0 °F 57% 29.83 in 10.0 mi West 9.2 mph - N/A   Clear
6:55 PM 73.4 °F - 59.0 °F 61% 29.84 in 10.0 mi West 6.9 mph - N/A   Clear
7:15 PM 69.8 °F - 57.2 °F 64% 29.85 in 10.0 mi West 5.8 mph - N/A   Clear
7:36 PM 69.8 °F - 53.6 °F 56% 29.85 in 10.0 mi West 5.8 mph - N/A   Clear
7:58 PM 68.0 °F - 53.6 °F 60% 29.87 in 10.0 mi WNW 6.9 mph - N/A   Clear
8:17 PM 66.2 °F - 51.8 °F 60% 29.87 in 10.0 mi WNW 6.9 mph - N/A   Clear
8:36 PM 62.6 °F - 51.8 °F 68% 29.87 in 10.0 mi WNW 8.1 mph - N/A   Clear
8:56 PM 64.4 °F - 53.6 °F 68% 29.87 in 10.0 mi NW 5.8 mph - N/A   Clear
9:15 PM 62.6 °F - 53.6 °F 72% 29.87 in 10.0 mi NW 3.5 mph - N/A   Clear
9:20 PM 62.6 °F - 53.6 °F 72% 29.87 in 10.0 mi NW 3.5 mph - N/A   Clear
9:37 PM 62.6 °F - 53.6 °F 72% 29.88 in 10.0 mi Calm Calm - N/A   Clear
9:55 PM 60.8 °F - 53.6 °F 77% 29.89 in 10.0 mi Calm Calm - N/A   Clear
10:16 PM 60.8 °F - 53.6 °F 77% 29.89 in 10.0 mi NW 3.5 mph - N/A   Clear
10:36 PM 59.0 °F - 53.6 °F 82% 29.90 in 10.0 mi Calm Calm - N/A   Clear
10:58 PM 59.0 °F - 53.6 °F 82% 29.90 in 10.0 mi Calm Calm - N/A   Clear
11:17 PM 59.0 °F - 53.6 °F 82% 29.91 in 10.0 mi Calm Calm - N/A   Clear
11:36 PM 59.0 °F - 53.6 °F 82% 29.91 in 10.0 mi NW 5.8 mph - N/A   Clear
11:56 PM 57.2 °F - 53.6 °F 88% 29.91 in 10.0 mi WNW 4.6 mph - N/A   Clear